Mornington Island Airport Observation History
Time Wind Speed Temp Pressure Rel. Hum Rain
14/11:00am SE 12-21 kts 25.8°c 1013.8 hPa 38% 0.0mm
14/10:30am SE 12-18 kts 25.3°c 1014.2 hPa 40% 0.0mm
14/10:00am SE 12-17 kts 24.3°c 1014.3 hPa 40% 0.0mm
14/09:30am SSE 13-19 kts 23.9°c 1014.2 hPa 38% 0.0mm
14/09:00am SSE 12-18 kts 23.9°c 1014.0 hPa 40% 0.0mm
14/08:30am SSE 13-20 kts 23.5°c 1013.7 hPa 40% 0.0mm
14/08:00am SSE 12-21 kts 23.3°c 1013.3 hPa 40% 0.0mm
14/07:30am SSE 12-19 kts 23.2°c 1012.9 hPa 42% 0.0mm
14/07:00am SSE 11-17 kts 23.0°c 1012.6 hPa 46% 0.0mm
14/06:30am SE 11-19 kts 23.1°c 1012.2 hPa 43% 0.0mm
14/06:00am SSE 12-21 kts 23.4°c 1012.1 hPa 43% 0.0mm
14/05:30am SSE 12-18 kts 24.0°c 1011.8 hPa 48% 0.0mm
14/05:00am SE 11-17 kts 24.0°c 1011.4 hPa 47% 0.0mm
14/04:30am SE 11-17 kts 24.0°c 1011.2 hPa 48% 0.0mm
14/04:00am SSE 9-17 kts 24.0°c 1011.2 hPa 50% 0.0mm
14/03:30am SSE 9-13 kts 24.3°c 1011.2 hPa 53% 0.0mm
14/03:00am SSE 8-13 kts 24.4°c 1011.2 hPa 54% 0.0mm
14/02:30am SSE 8-11 kts 24.7°c 1011.3 hPa 55% 0.0mm
14/02:00am SSE 9-12 kts 24.7°c 1011.6 hPa 54% 0.0mm
14/01:30am SSE 8-11 kts 24.2°c 1011.7 hPa 56% 0.0mm
14/01:00am S 6-9 kts 23.7°c 1011.7 hPa 59% 0.0mm
14/12:30am SSE 5-7 kts 22.8°c 1011.8 hPa 61% 0.0mm
14/12:00am SE 5-6 kts 21.9°c 1012.0 hPa 64% 0.0mm
Time Wind Speed Temp Pressure Rel. Hum Rain
13/11:30pm SSE 5-6 kts 22.3°c 1012.0 hPa 64% 0.0mm
13/11:00pm SE 5-8 kts 22.0°c 1012.2 hPa 71% 0.0mm
13/10:30pm SE 2-4 kts 19.4°c 1012.1 hPa 88% 0.0mm
13/10:00pm SE 3-4 kts 19.1°c 1012.2 hPa 84% 0.0mm
13/09:30pm CALM 0-1 kts 19.0°c 1012.1 hPa 80% 0.0mm
13/09:00pm CALM 0 kts 19.3°c 1011.9 hPa 78% 0.0mm
13/08:30pm CALM 0 kts 20.3°c 1011.6 hPa 74% 0.0mm
13/08:00pm SE 3-4 kts 20.7°c 1011.3 hPa 68% 0.0mm
13/07:30pm SE 4 kts 21.4°c 1011.0 hPa 64% 0.0mm
13/07:00pm SE 4-5 kts 22.3°c 1010.7 hPa 53% 0.0mm
13/06:30pm SE 4-5 kts 24.7°c 1010.6 hPa 45% 0.0mm
13/06:00pm SE 4-5 kts 26.7°c 1010.5 hPa 42% 0.0mm
13/05:30pm SE 6-8 kts 28.1°c 1010.4 hPa 34% 0.0mm
13/05:00pm SE 7-11 kts 28.6°c 1010.3 hPa 32% 0.0mm
13/04:30pm SE 8-11 kts 28.9°c 1010.4 hPa 33% 0.0mm
13/04:00pm SE 9-12 kts 28.8°c 1010.6 hPa 35% 0.0mm
13/03:30pm SE 9-13 kts 28.9°c 1010.8 hPa 35% 0.0mm
13/03:00pm SE 9-14 kts 29.1°c 1011.0 hPa 33% 0.0mm
13/02:30pm SE 10-16 kts 28.1°c 1011.3 hPa 33% 0.0mm
13/02:00pm SSE 10-15 kts 27.8°c 1011.7 hPa 36% 0.0mm
13/01:30pm SE 9-13 kts 27.4°c 1012.2 hPa 41% 0.0mm
13/01:00pm SE 12-16 kts 26.7°c 1012.6 hPa 41% 0.0mm
13/12:30pm SE 11-17 kts 25.9°c 1013.1 hPa 43% 0.0mm
13/12:00pm SE 12-19 kts 25.7°c 1013.4 hPa 45% 0.0mm
13/11:30am SSE 13-19 kts 25.8°c 1013.8 hPa 45% 0.0mm
13/11:00am SSE 12-19 kts 25.1°c 1013.9 hPa 48% 0.0mm
13/10:30am SSE 11-17 kts 24.9°c 1014.2 hPa 47% 0.0mm
13/10:00am SE 12-19 kts 24.4°c 1014.2 hPa 47% 0.0mm
13/09:30am SSE 13-18 kts 24.2°c 1014.2 hPa 47% 0.0mm
13/09:00am SE 13-19 kts 24.1°c 1014.2 hPa 47% 0.0mm
13/08:30am SSE 13-21 kts 23.7°c 1013.9 hPa 46% 0.0mm
13/08:00am SSE 13-20 kts 23.3°c 1013.6 hPa 47% 0.0mm
13/07:30am SSE 12-19 kts 23.0°c 1013.4 hPa 48% 0.0mm
13/07:00am SSE 11-17 kts 22.5°c 1013.1 hPa 50% 0.0mm
13/06:30am SSE 11-18 kts 22.6°c 1012.7 hPa 51% 0.0mm
13/06:00am SSE 12-18 kts 23.1°c 1012.3 hPa 49% 0.0mm
13/05:30am SSE 11-20 kts 22.9°c 1012.1 hPa 50% 0.0mm
13/05:00am SSE 10-15 kts 22.7°c 1012.0 hPa 54% 0.0mm
13/04:30am S 6-10 kts 21.2°c 1012.1 hPa 63% 0.0mm
13/04:00am S 6-10 kts 21.3°c 1012.2 hPa 61% 0.0mm
13/03:30am S 5-8 kts 21.6°c 1012.2 hPa 61% 0.0mm
13/03:00am S 5-7 kts 21.1°c 1012.2 hPa 66% 0.0mm
13/02:30am S 5-8 kts 21.4°c 1012.1 hPa 64% 0.0mm
13/02:00am S 5-7 kts 22.0°c 1012.2 hPa 65% 0.0mm
13/01:30am SSW 5-9 kts 22.6°c 1012.1 hPa 60% 0.0mm
13/01:00am S 6-9 kts 22.5°c 1012.3 hPa 68% 0.0mm
13/12:30am S 4-6 kts 22.7°c 1012.6 hPa 67% 0.0mm
13/12:00am S 4-6 kts 23.0°c 1012.6 hPa 67% 0.0mm
Time Wind Speed Temp Pressure Rel. Hum Rain
12/11:30pm SSE 3-6 kts 22.3°c 1012.8 hPa 70% 0.0mm
12/11:00pm SSE 4-5 kts 22.6°c 1013.0 hPa 70% 0.0mm
12/10:30pm SSE 4-6 kts 22.4°c 1013.0 hPa 69% 0.0mm
12/10:00pm SSE 5-6 kts 23.2°c 1013.1 hPa 65% 0.0mm
12/09:30pm SSE 4-6 kts 20.9°c 1013.1 hPa 75% 0.0mm
12/09:00pm SE 4-5 kts 20.4°c 1013.0 hPa 77% 0.0mm
12/08:30pm SE 4-5 kts 21.0°c 1012.7 hPa 73% 0.0mm
12/08:00pm SE 4 kts 21.3°c 1012.4 hPa 68% 0.0mm
12/07:30pm SE 4-5 kts 22.6°c 1012.0 hPa 60% 0.0mm
12/07:00pm SE 5-6 kts 24.2°c 1011.8 hPa 54% 0.0mm
12/06:30pm SE 5 kts 25.4°c 1011.7 hPa 49% 0.0mm
12/06:00pm SE 4-5 kts 27.4°c 1011.6 hPa 40% 0.0mm
12/05:30pm SE 6-8 kts 28.6°c 1011.4 hPa 36% 0.0mm
12/05:00pm SE 7-10 kts 29.0°c 1011.4 hPa 36% 0.0mm
12/04:30pm SE 7-11 kts 29.1°c 1011.3 hPa 35% 0.0mm
12/04:00pm SE 10-14 kts 28.8°c 1011.4 hPa 34% 0.0mm
12/03:30pm SSE 9-13 kts 29.1°c 1011.6 hPa 33% 0.0mm
12/03:00pm SE 11-17 kts 28.6°c 1011.8 hPa 34% 0.0mm
12/02:30pm SSE 11-18 kts 28.5°c 1012.1 hPa 37% 0.0mm
12/02:00pm SE 11-17 kts 28.0°c 1012.3 hPa 34% 0.0mm
12/01:30pm SSE 13-18 kts 27.7°c 1012.8 hPa 36% 0.0mm
12/01:00pm SE 14-21 kts 27.5°c 1013.5 hPa 37% 0.0mm
12/12:30pm SE 13-19 kts 26.7°c 1014.1 hPa 41% 0.0mm
12/12:00pm SE 13-19 kts 26.7°c 1014.5 hPa 42% 0.0mm
12/11:30am SE 13-20 kts 26.2°c 1014.9 hPa 42% 0.0mm
12/11:00am SE 13-21 kts 26.0°c 1015.2 hPa 44% 0.0mm
12/10:30am SSE 13-21 kts 25.9°c 1015.3 hPa 45% 0.0mm
12/10:00am SE 13-23 kts 25.3°c 1015.4 hPa 44% 0.0mm
12/09:30am SE 13-23 kts 25.3°c 1015.5 hPa 43% 0.0mm
12/09:00am SSE 15-23 kts 24.7°c 1015.2 hPa 45% n/a
12/08:30am SE 14-23 kts 24.3°c 1014.9 hPa 45% n/a
12/08:23am SE 15-26 kts 24.2°c 1014.8 hPa 46% n/a
12/08:00am SE 14-22 kts 24.0°c 1014.6 hPa 48% n/a
12/07:30am SSE 13-21 kts 23.7°c 1014.2 hPa 49% n/a
12/07:00am SSE 12-21 kts 23.5°c 1013.8 hPa 51% n/a
12/06:30am SSE 12-19 kts 23.4°c 1013.4 hPa 57% n/a
12/06:00am SSE 11-17 kts 23.2°c 1012.9 hPa 57% n/a
12/05:30am SSE 9-15 kts 23.1°c 1012.7 hPa 59% n/a
12/05:00am SSE 10-15 kts 25.3°c 1012.4 hPa 55% n/a
12/04:30am SE 9-13 kts 25.4°c 1012.3 hPa 56% n/a
12/04:00am SE 8-13 kts 25.4°c 1012.4 hPa 55% n/a
12/03:30am SE 9-13 kts 25.6°c 1012.3 hPa 55% n/a
12/03:00am SSE 9-13 kts 25.2°c 1012.3 hPa 58% 0.0mm
12/02:30am SSE 8-12 kts 25.4°c 1012.3 hPa 55% n/a
12/02:00am SSE 9-13 kts 25.3°c 1012.6 hPa 56% n/a
12/01:30am SSE 7-10 kts 24.9°c 1013.0 hPa 60% n/a
12/01:00am SSE 6-9 kts 24.3°c 1013.3 hPa 63% n/a
12/12:30am SSE 6-8 kts 23.9°c 1013.4 hPa 64% n/a
12/12:00am S 6-8 kts 23.8°c 1013.5 hPa 66% n/a